Lake Elmo, MN

12:17 AM CST on February 23, 2017 (GMT -0600)
St. Paul Lake Elmo

Weather History for K21D - November, 2013

Change the Weather History Date:

Sunday, November 10, 2013

  Actual Average (KSTP) Record (KSTP)
Temperature  
Mean Temperature 37 °F -  
Max Temperature 42 °F 42 °F 68 °F (2012)
Min Temperature 32 °F 28 °F 21 °F (1996)
Degree Days  
Heating Degree Days 28    
Moisture  
Dew Point 30 °F    
Average Humidity 75    
Maximum Humidity 87    
Minimum Humidity 57    
Precipitation  
Precipitation 0.00 in - - ()
Sea Level Pressure  
Sea Level Pressure 30.23 in    
Wind  
Wind Speed 9 mph (WSW)    
Max Wind Speed 16 mph    
Max Gust Speed 23 mph    
Visibility 10 miles    
Events      
Averages and records for this station are not official NWS values.
T = Trace of Precipitation, MM = Missing Value Source: NWS Daily Summary

Daily Weather History Graph

Daily Weather History Graph

Search for Another Location

Airport or City:

Trip Planner

Search our weather history database for the weather conditions in past years. The results will help you decide how hot, cold, wet, or windy it might be!

Date:

Astronomy

Nov. 10, 2013 Rise Set
Actual Time 7:02 AM CST 4:47 PM CST
Civil Twilight 6:31 AM CST 5:18 PM CST
Nautical Twilight 5:55 AM CST 5:54 PM CST
Astronomical Twilight 5:21 AM CST 6:28 PM CST
Moon 1:10 PM CST (11/10) No Moon Set
Length of Visible Light 10h 47m
Length of Day
9h 44m
First Quarter, 56% of the Moon is Illuminated
Nov 10
First Quarter
Nov 17
Full
Nov 25
Last Quarter
Dec 2
New
Dec 9
First Quarter

Hourly Weather History & Observations

Time (CST) Temp. Windchill Dew Point Humidity Pressure Visibility Wind Dir Wind Speed Gust Speed Precip Events Conditions
12:11 AM 37.4 °F 29.8 °F 30.2 °F 75% 30.19 in 10.0 mi WNW 11.5 mph - N/A   Overcast
12:32 AM 37.4 °F 28.9 °F 30.2 °F 75% 30.20 in 10.0 mi WNW 13.8 mph 20.7 mph N/A   Overcast
12:52 AM 37.4 °F 30.3 °F 30.2 °F 75% 30.21 in 10.0 mi WNW 10.4 mph 18.4 mph N/A   Overcast
1:11 AM 37.4 °F 28.2 °F 30.2 °F 75% 30.20 in 10.0 mi NW 16.1 mph 23.0 mph N/A   Overcast
1:32 AM 37.4 °F 29.8 °F 30.2 °F 75% 30.22 in 10.0 mi WNW 11.5 mph 20.7 mph N/A   Overcast
1:52 AM 37.4 °F 29.8 °F 30.2 °F 75% 30.22 in 10.0 mi NW 11.5 mph 19.6 mph N/A   Overcast
2:11 AM 37.4 °F 30.3 °F 30.2 °F 75% 30.23 in 10.0 mi NW 10.4 mph 18.4 mph N/A   Overcast
2:32 AM 37.4 °F 30.3 °F 30.2 °F 75% 30.24 in 10.0 mi NW 10.4 mph 16.1 mph N/A   Overcast
2:51 AM 37.4 °F 29.3 °F 30.2 °F 75% 30.25 in 10.0 mi WNW 12.7 mph 17.3 mph N/A   Overcast
3:12 AM 37.4 °F 30.8 °F 30.2 °F 75% 30.25 in 10.0 mi WNW 9.2 mph - N/A   Overcast
3:32 AM 37.4 °F 31.4 °F 30.2 °F 75% 30.26 in 10.0 mi NW 8.1 mph - N/A   Overcast
3:51 AM 37.4 °F 31.4 °F 30.2 °F 75% 30.26 in 10.0 mi NW 8.1 mph - N/A   Overcast
4:12 AM 35.6 °F 29.2 °F 30.2 °F 81% 30.26 in 10.0 mi NW 8.1 mph - N/A   Overcast
4:32 AM 35.6 °F 31.7 °F 30.2 °F 81% 30.27 in 10.0 mi NW 4.6 mph - N/A   Overcast
4:51 AM 35.6 °F 30.7 °F 30.2 °F 81% 30.28 in 10.0 mi NW 5.8 mph - N/A   Overcast
5:12 AM 35.6 °F 30.7 °F 28.4 °F 75% 30.29 in 10.0 mi NW 5.8 mph - N/A   Overcast
5:31 AM 35.6 °F 30.7 °F 28.4 °F 75% 30.29 in 10.0 mi NW 5.8 mph - N/A   Overcast
5:52 AM 35.6 °F 31.7 °F 28.4 °F 75% 30.29 in 10.0 mi NW 4.6 mph - N/A   Overcast
6:12 AM 33.8 °F 30.8 °F 28.4 °F 81% 30.29 in 10.0 mi West 3.5 mph - N/A   Mostly Cloudy
6:31 AM 32.0 °F 28.7 °F 28.4 °F 87% 30.30 in 10.0 mi WSW 3.5 mph - N/A   Overcast
6:52 AM 32.0 °F 26.4 °F 28.4 °F 87% 30.31 in 10.0 mi WSW 5.8 mph - N/A   Mostly Cloudy
7:12 AM 32.0 °F 26.4 °F 26.6 °F 80% 30.31 in 10.0 mi West 5.8 mph - N/A   Scattered Clouds
7:31 AM 32.0 °F 25.6 °F 28.4 °F 87% 30.32 in 10.0 mi WSW 6.9 mph - N/A   Clear
7:52 AM 32.0 °F 25.6 °F 28.4 °F 87% 30.33 in 10.0 mi West 6.9 mph - N/A   Clear
8:11 AM 33.8 °F 29.6 °F 28.4 °F 81% 30.32 in 10.0 mi West 4.6 mph - N/A   Clear
8:32 AM 35.6 °F 31.7 °F 28.4 °F 75% 30.33 in 10.0 mi West 4.6 mph - N/A   Clear
8:52 AM 35.6 °F 31.7 °F 28.4 °F 75% 30.33 in 10.0 mi West 4.6 mph - N/A   Clear
9:11 AM 35.6 °F 32.8 °F 28.4 °F 75% 30.32 in 10.0 mi WNW 3.5 mph - N/A   Clear
9:32 AM 35.6 °F 31.7 °F 28.4 °F 75% 30.32 in 10.0 mi West 4.6 mph - N/A   Clear
9:52 AM 37.4 °F 32.8 °F 28.4 °F 70% 30.32 in 10.0 mi West 5.8 mph - N/A   Clear
10:12 AM 39.2 °F 34.2 °F 28.4 °F 65% 30.33 in 10.0 mi WSW 6.9 mph - N/A   Clear
10:32 AM 39.2 °F 34.2 °F 28.4 °F 65% 30.31 in 10.0 mi WSW 6.9 mph - N/A   Clear
10:51 AM 41.0 °F 35.2 °F 30.2 °F 65% 30.31 in 10.0 mi SW 9.2 mph - N/A   Clear
11:12 AM 41.0 °F 35.8 °F 30.2 °F 65% 30.30 in 10.0 mi SW 8.1 mph - N/A   Clear
11:31 AM 42.8 °F 38.0 °F 30.2 °F 61% 30.29 in 10.0 mi SW 8.1 mph - N/A   Clear
11:52 AM 41.0 °F 33.9 °F 28.4 °F 61% 30.28 in 10.0 mi SSW 12.7 mph - N/A   Clear
12:12 PM 42.8 °F 37.0 °F 28.4 °F 57% 30.27 in 10.0 mi SW 10.4 mph - N/A   Clear
12:31 PM 42.8 °F 37.5 °F 30.2 °F 61% 30.26 in 10.0 mi WSW 9.2 mph 16.1 mph N/A   Clear
12:52 PM 42.8 °F 37.0 °F 28.4 °F 57% 30.27 in 10.0 mi WSW 10.4 mph - N/A   Clear
1:11 PM 42.8 °F 36.6 °F 28.4 °F 57% 30.26 in 10.0 mi SW 11.5 mph - N/A   Clear
1:32 PM 41.0 °F 34.3 °F 28.4 °F 61% 30.25 in 10.0 mi SW 11.5 mph 18.4 mph N/A   Mostly Cloudy
1:52 PM 41.0 °F 34.7 °F 30.2 °F 65% 30.24 in 10.0 mi WSW 10.4 mph - N/A   Overcast
2:11 PM 41.0 °F 35.8 °F 28.4 °F 61% 30.24 in 10.0 mi WSW 8.1 mph - N/A   Overcast
2:32 PM 41.0 °F 33.9 °F 30.2 °F 65% 30.24 in 10.0 mi SW 12.7 mph - N/A   Overcast
2:51 PM 39.2 °F 34.2 °F 30.2 °F 70% 30.23 in 10.0 mi SW 6.9 mph - N/A   Overcast
3:12 PM 39.2 °F 33.0 °F 30.2 °F 70% 30.22 in 10.0 mi SW 9.2 mph - N/A   Overcast
3:32 PM 39.2 °F 33.0 °F 30.2 °F 70% 30.22 in 10.0 mi SW 9.2 mph - N/A   Overcast
3:52 PM 39.2 °F 33.6 °F 30.2 °F 70% 30.21 in 10.0 mi SW 8.1 mph - N/A   Overcast
4:11 PM 37.4 °F 31.4 °F 30.2 °F 75% 30.20 in 10.0 mi SW 8.1 mph - N/A   Overcast
4:32 PM 37.4 °F 30.3 °F 30.2 °F 75% 30.19 in 10.0 mi SW 10.4 mph - N/A   Overcast
4:52 PM 37.4 °F 31.4 °F 30.2 °F 75% 30.19 in 10.0 mi SSW 8.1 mph - N/A   Overcast
5:12 PM 37.4 °F 32.8 °F 30.2 °F 75% 30.18 in 10.0 mi SSW 5.8 mph - N/A   Overcast
5:31 PM 37.4 °F 34.9 °F 30.2 °F 75% 30.18 in 10.0 mi SSW 3.5 mph - N/A   Overcast
5:52 PM 37.4 °F 33.8 °F 30.2 °F 75% 30.17 in 10.0 mi SSW 4.6 mph - N/A   Overcast
6:12 PM 37.4 °F 34.9 °F 32.0 °F 81% 30.17 in 10.0 mi South 3.5 mph - N/A   Overcast
6:32 PM 37.4 °F 33.8 °F 32.0 °F 81% 30.15 in 10.0 mi SSE 4.6 mph - N/A   Overcast
6:51 PM 37.4 °F 34.9 °F 32.0 °F 81% 30.16 in 10.0 mi South 3.5 mph - N/A   Overcast
7:12 PM 37.4 °F 31.4 °F 32.0 °F 81% 30.13 in 10.0 mi SSE 8.1 mph - N/A   Overcast
7:31 PM 37.4 °F 31.4 °F 32.0 °F 81% 30.15 in 10.0 mi SSW 8.1 mph - N/A   Overcast
7:52 PM 37.4 °F 31.4 °F 32.0 °F 81% 30.14 in 10.0 mi SSW 8.1 mph - N/A   Overcast
8:12 PM 37.4 °F 30.8 °F 32.0 °F 81% 30.13 in 10.0 mi SSW 9.2 mph - N/A   Overcast
8:31 PM 37.4 °F 31.4 °F 32.0 °F 81% 30.13 in 10.0 mi SSW 8.1 mph - N/A   Overcast
8:52 PM 37.4 °F 31.4 °F 32.0 °F 81% 30.13 in 10.0 mi SSW 8.1 mph - N/A   Overcast
9:11 PM 37.4 °F 31.4 °F 32.0 °F 81% 30.11 in 10.0 mi SSW 8.1 mph - N/A   Overcast
9:32 PM 37.4 °F 32.1 °F 32.0 °F 81% 30.12 in 10.0 mi SW 6.9 mph - N/A   Overcast
9:52 PM 37.4 °F 31.4 °F 32.0 °F 81% 30.09 in 10.0 mi SSW 8.1 mph - N/A   Overcast
10:12 PM 37.4 °F 32.8 °F 32.0 °F 81% 30.10 in 10.0 mi SW 5.8 mph - N/A   Overcast
10:31 PM 37.4 °F 32.8 °F 32.0 °F 81% 30.10 in 10.0 mi WSW 5.8 mph - N/A   Overcast
10:52 PM 37.4 °F 32.8 °F 32.0 °F 81% 30.11 in 10.0 mi West 5.8 mph - N/A   Overcast
11:12 PM 37.4 °F 33.8 °F 32.0 °F 81% 30.11 in 10.0 mi West 4.6 mph - N/A   Overcast
11:32 PM 37.4 °F 32.8 °F 32.0 °F 81% 30.11 in 10.0 mi WNW 5.8 mph - N/A   Overcast
11:51 PM 37.4 °F 32.1 °F 32.0 °F 81% 30.10 in 10.0 mi WNW 6.9 mph - N/A   Overcast